Hourly Weather Bolshie Galashki

Today, 2 August, Monday

Time Temperature Precipitation Wind Pressure Humidity
00:00 +15°C° 0 mm 1 mps 723 mmHg 92%
01:00 +15°C° 0 mm 1 mps 724 mmHg 91%
02:00 +15°C° 0 mm 1 mps 724 mmHg 92%
03:00 +14°C° 0 mm 1 mps 724 mmHg 94%
04:00 +14°C° 0 mm 1 mps 724 mmHg 95%
05:00 +15°C° 0 mm 1 mps 724 mmHg 91%
06:00 +16°C° 0 mm 2 mps 725 mmHg 87%
07:00 +17°C° 0 mm 2 mps 725 mmHg 83%
08:00 +19°C° 0 mm 3 mps 725 mmHg 74%
09:00 +20°C° 0 mm 3 mps 725 mmHg 65%
10:00 +22°C° 0 mm 4 mps 726 mmHg 55%
11:00 +23°C° 0 mm 4 mps 726 mmHg 52%
12:00 +23°C° 0 mm 4 mps 726 mmHg 49%
13:00 +25°C° 0 mm 4 mps 726 mmHg 47%
14:00 +25°C° 0 mm 4 mps 726 mmHg 47%
15:00 +25°C° 0 mm 4 mps 726 mmHg 47%
16:00 +26°C° 0 mm 3 mps 726 mmHg 46%
17:00 +24°C° 0 mm 3 mps 726 mmHg 54%
18:00 +23°C° 0 mm 2 mps 726 mmHg 61%
19:00 +21°C° 0 mm 2 mps 725 mmHg 69%
20:00 +20°C° 0.2 mm 2 mps 725 mmHg 75%
21:00 +19°C° 0.2 mm 2 mps 725 mmHg 82%
22:00 +17°C° 0.2 mm 2 mps 725 mmHg 88%
23:00 +17°C° 0 mm 2 mps 725 mmHg 90%

Tomorrow, 3 August, Tuesday

Time Temperature Precipitation Wind Pressure Humidity
00:00 +17°C° 0 mm 2 mps 725 mmHg 91%
01:00 +16°C° 0 mm 2 mps 725 mmHg 93%
02:00 +16°C° 0 mm 2 mps 725 mmHg 94%
03:00 +16°C° 0 mm 1 mps 725 mmHg 95%
04:00 +15°C° 0 mm 1 mps 725 mmHg 96%
05:00 +16°C° 0 mm 1 mps 725 mmHg 93%
06:00 +18°C° 0 mm 1 mps 726 mmHg 90%
07:00 +19°C° 0 mm 1 mps 726 mmHg 88%
08:00 +20°C° 0 mm 2 mps 726 mmHg 79%
09:00 +23°C° 0 mm 2 mps 726 mmHg 70%
10:00 +25°C° 0 mm 3 mps 726 mmHg 61%
11:00 +25°C° 0 mm 3 mps 726 mmHg 58%
12:00 +26°C° 0 mm 3 mps 726 mmHg 54%
13:00 +27°C° 0 mm 3 mps 726 mmHg 51%
14:00 +27°C° 0 mm 3 mps 726 mmHg 50%
15:00 +27°C° 0 mm 3 mps 726 mmHg 49%
16:00 +28°C° 0 mm 3 mps 726 mmHg 48%
17:00 +26°C° 0.1 mm 2 mps 726 mmHg 57%
18:00 +25°C° 0.1 mm 1 mps 726 mmHg 66%
19:00 +23°C° 0.1 mm 1 mps 726 mmHg 75%
20:00 +22°C° 0 mm 1 mps 726 mmHg 78%
21:00 +19°C° 0 mm 0 mps 725 mmHg 81%
22:00 +17°C° 0 mm 0 mps 725 mmHg 83%
23:00 +17°C° 0 mm 0 mps 725 mmHg 84%

Day after tomorrow, 4 August, Wednesday

Time Temperature Precipitation Wind Pressure Humidity
00:00 +19°C° 0 mm 1 mps 726 mmHg 85%
01:00 +18°C° 0 mm 1 mps 726 mmHg 86%
02:00 +18°C° 0 mm 1 mps 726 mmHg 87%
03:00 +18°C° 0 mm 1 mps 726 mmHg 89%
04:00 +18°C° 0 mm 1 mps 726 mmHg 90%
05:00 +19°C° 0 mm 1 mps 726 mmHg 85%
06:00 +21°C° 0 mm 1 mps 726 mmHg 80%
07:00 +23°C° 0 mm 1 mps 726 mmHg 75%
08:00 +25°C° 0 mm 1 mps 726 mmHg 66%
09:00 +27°C° 0 mm 1 mps 726 mmHg 58%
10:00 +29°C° 0 mm 2 mps 726 mmHg 49%
11:00 +29°C° 0 mm 2 mps 726 mmHg 51%
12:00 +28°C° 0 mm 2 mps 726 mmHg 52%
13:00 +28°C° 0 mm 2 mps 726 mmHg 54%
14:00 +29°C° 0 mm 2 mps 726 mmHg 50%
15:00 +30°C° 0 mm 3 mps 725 mmHg 46%
16:00 +30°C° 0 mm 3 mps 725 mmHg 43%
17:00 +29°C° 0 mm 2 mps 725 mmHg 51%
18:00 +27°C° 0 mm 2 mps 725 mmHg 59%
19:00 +26°C° 0 mm 1 mps 724 mmHg 67%
20:00 +25°C° 0 mm 1 mps 724 mmHg 70%
21:00 +23°C° 0 mm 1 mps 724 mmHg 72%
22:00 +22°C° 0 mm 1 mps 724 mmHg 75%
23:00 +22°C° 0 mm 1 mps 724 mmHg 76%

5 August, Thursday

Time Temperature Precipitation Wind Pressure Humidity
00:00 +21°C° 0 mm 1 mps 724 mmHg 77%
01:00 +21°C° 0 mm 1 mps 724 mmHg 77%
02:00 +20°C° 0.1 mm 1 mps 723 mmHg 80%
03:00 +20°C° 0.1 mm 1 mps 723 mmHg 83%
04:00 +19°C° 0.1 mm 1 mps 723 mmHg 85%
05:00 +20°C° 0.1 mm 1 mps 723 mmHg 81%
06:00 +21°C° 0.1 mm 1 mps 723 mmHg 77%
07:00 +22°C° 0.1 mm 1 mps 723 mmHg 73%
08:00 +24°C° 0 mm 2 mps 723 mmHg 65%
09:00 +25°C° 0 mm 2 mps 723 mmHg 57%
10:00 +27°C° 0 mm 3 mps 723 mmHg 49%
11:00 +27°C° 0 mm 4 mps 723 mmHg 48%
12:00 +28°C° 0 mm 4 mps 723 mmHg 46%
13:00 +28°C° 0 mm 5 mps 723 mmHg 45%
14:00 +27°C° 0 mm 5 mps 723 mmHg 48%
15:00 +26°C° 0 mm 5 mps 723 mmHg 52%
16:00 +24°C° 0 mm 6 mps 723 mmHg 55%
17:00 +21°C° 0 mm 5 mps 723 mmHg 66%
18:00 +19°C° 0 mm 5 mps 723 mmHg 78%
19:00 +17°C° 0 mm 4 mps 723 mmHg 89%
20:00 +15°C° 0 mm 5 mps 723 mmHg 90%
21:00 +14°C° 0 mm 5 mps 723 mmHg 91%
22:00 +14°C° 0 mm 5 mps 722 mmHg 91%
23:00 +14°C° 0 mm 5 mps 722 mmHg 92%

6 August, Friday

Time Temperature Precipitation Wind Pressure Humidity
00:00 +13°C° 0 mm 5 mps 722 mmHg 93%
01:00 +13°C° 0 mm 4 mps 722 mmHg 94%
02:00 +13°C° 0 mm 5 mps 722 mmHg 93%
03:00 +12°C° 0 mm 5 mps 722 mmHg 93%
04:00 +12°C° 0 mm 5 mps 722 mmHg 92%
05:00 +12°C° 0 mm 5 mps 723 mmHg 91%
06:00 +12°C° 0 mm 5 mps 723 mmHg 91%
07:00 +12°C° 0 mm 5 mps 723 mmHg 90%
08:00 +12°C° 0 mm 5 mps 723 mmHg 88%
09:00 +13°C° 0 mm 5 mps 723 mmHg 86%
10:00 +13°C° 0 mm 5 mps 723 mmHg 84%
11:00 +13°C° 0 mm 5 mps 724 mmHg 83%
12:00 +13°C° 0 mm 5 mps 724 mmHg 81%
13:00 +13°C° 0 mm 5 mps 724 mmHg 80%
14:00 +13°C° 0 mm 5 mps 724 mmHg 82%
15:00 +12°C° 0 mm 5 mps 724 mmHg 84%
16:00 +12°C° 0 mm 5 mps 724 mmHg 86%
17:00 +10°C° 0 mm 5 mps 724 mmHg 87%
18:00 +10°C° 0 mm 5 mps 724 mmHg 89%
19:00 +11°C° 0 mm 4 mps 724 mmHg 91%
20:00 +11°C° 0.3 mm 4 mps 724 mmHg 92%
21:00 +11°C° 0.3 mm 4 mps 724 mmHg 93%
22:00 +11°C° 0.3 mm 4 mps 724 mmHg 94%
23:00 +10°C° 0.3 mm 4 mps 724 mmHg 94%

7 August, Saturday

Time Temperature Precipitation Wind Pressure Humidity
00:00 +10°C° 0.3 mm 4 mps 724 mmHg 94%
01:00 +10°C° 0.3 mm 4 mps 723 mmHg 94%
02:00 +10°C° 0 mm 4 mps 723 mmHg 94%
03:00 +10°C° 0 mm 4 mps 723 mmHg 94%
04:00 +10°C° 0 mm 4 mps 723 mmHg 94%
05:00 +10°C° 0.1 mm 4 mps 723 mmHg 94%
06:00 +10°C° 0.1 mm 4 mps 723 mmHg 93%
07:00 +10°C° 0.1 mm 4 mps 724 mmHg 93%
08:00 +10°C° 0.1 mm 4 mps 724 mmHg 92%
09:00 +10°C° 0.1 mm 4 mps 724 mmHg 91%
10:00 +10°C° 0.1 mm 4 mps 724 mmHg 90%
11:00 +10°C° 0 mm 4 mps 724 mmHg 91%
12:00 +10°C° 0 mm 4 mps 724 mmHg 91%
13:00 +10°C° 0 mm 4 mps 725 mmHg 91%
14:00 +10°C° 0.1 mm 4 mps 725 mmHg 91%
15:00 +10°C° 0.1 mm 4 mps 725 mmHg 91%
16:00 +10°C° 0.1 mm 4 mps 725 mmHg 91%
17:00 +10°C° 0 mm 4 mps 725 mmHg 91%
18:00 +10°C° 0 mm 4 mps 725 mmHg 92%
19:00 +8°C° 0 mm 4 mps 725 mmHg 93%
20:00 +9°C° 0 mm 3 mps 725 mmHg 93%
21:00 +9°C° 0 mm 3 mps 725 mmHg 93%
22:00 +9°C° 0 mm 3 mps 725 mmHg 93%
23:00 +9°C° 0 mm 3 mps 725 mmHg 94%
Show more

We Need Your Consent

Meteoprog and our Service Providers may store and access personal data such as cookies, device identifiers or other similar technologies on your device and process such data to personalise content and ads, as well as provide social media features and to analyse the traffic.

  • Store and/or access information on your device

    Cookies, device identifiers or other information can be stored or accessed on your device for the purposes indicated above.

  • Personalised ads and content, ad and content measurement, audience insights, and products development

    Ads and content can be personalised based on a profile. More data can be added to better personalise ads and content. Ad and content performance can be measured. Insights about the audience who saw the ads and content can be derived. Such data can be used to develop or improve user’s experience, systems and software.

By clicking ‘I Agree’ you will allow the use of indicated cookies, device identifiers, web beacons or other similar technologies. Your settings can be changed in the browser on your device.

For certain purposes, legitimate interests may be relied on, rather than consent. You can read more about this in our Privacy and Cookie Policy.